Date String (YYYY-MM-DD hh:mm:ss) UTC,Instrument flags,absolute air pressure of the measurement (hPa),sample flow rate (lpm),inlet stack bypass flow (lpm),air temperature of the measurement (°C),ambient temperature measured by the external sensor (°C),aerosol sample conditioner tube jacket temperature (°C),OPC LED temperature (°C),internal box temperature (°C),relative humidity of the measurement (%),span deviation,mass concentration of particles derived from Lorenz-Mie calculation of OPC scattering (μg/m³),mass concentration of particles derived from Lorenz-Mie calculation of OPC scattering (μg/m³),mass concentration of particles derived from Lorenz-Mie calculation of OPC scattering (μg/m³)
DateTimeUTC,F1_M11,P_M11,Q1_M11,Q2_M11,T1_M11,T2_M11,T3_M11,T4_M11,T5_M11,U1_M11,ZSPAN_M11,X0_M11,X2_M11,X1_M11
2023-11-17 07:00:00,SystemResetWarning,0830.0,5.00,000.00,027.6,026.6,000.0,036.0,029.0,20.6,0000.0,0009.47,0004.57,0004.01
2023-11-17 07:01:00,SystemResetWarning,0830.0,4.99,000.00,027.6,026.6,000.0,036.0,029.0,20.6,0000.0,0009.47,0004.59,0004.03
2023-11-17 07:02:00,SystemResetWarning,0830.0,4.99,000.00,027.6,026.6,000.0,036.0,029.0,20.6,0000.0,0008.99,0004.64,0004.05
2023-11-17 07:03:00,SystemResetWarning,0829.9,5.00,000.00,027.6,026.6,000.0,036.0,029.0,20.6,0000.0,0009.15,0004.67,0004.06
2023-11-17 07:04:00,SystemResetWarning,0829.9,5.00,000.00,027.6,026.5,000.0,036.0,029.0,20.6,0000.0,0009.53,0004.69,0004.07
2023-11-17 07:05:00,SystemResetWarning,0829.8,5.00,000.00,027.6,026.5,000.0,036.0,029.0,20.6,0000.0,0009.90,0004.67,0004.08
2023-11-17 07:06:00,SystemResetWarning,0829.9,5.00,000.00,027.6,026.5,000.0,036.0,029.0,20.7,0000.0,0010.09,0004.68,0004.10
2023-11-17 07:07:00,SystemResetWarning,0829.9,5.00,000.00,027.6,026.5,000.0,036.0,029.0,20.7,0000.0,0010.56,0004.74,0004.15
2023-11-17 07:08:00,SystemResetWarning,0829.9,5.00,000.00,027.6,026.5,000.0,036.0,029.0,20.7,0000.0,0010.81,0004.82,0004.17
2023-11-17 07:09:00,SystemResetWarning,0830.0,5.01,000.00,027.6,026.5,000.0,036.0,029.0,20.7,0000.0,0010.55,0004.81,0004.18
2023-11-17 07:10:00,SystemResetWarning,0830.0,5.00,000.00,027.6,026.5,000.0,036.0,029.0,20.7,0000.0,0010.76,0004.82,0004.21
2023-11-17 07:11:00,SystemResetWarning,0829.9,4.99,000.00,027.6,026.5,000.0,036.0,029.0,20.6,0000.0,0011.40,0004.85,0004.24
2023-11-17 07:12:00,SystemResetWarning,0829.9,5.00,000.00,027.6,026.5,000.0,036.0,029.0,20.6,0000.0,0011.48,0004.85,0004.26
2023-11-17 07:13:00,SystemResetWarning,0829.9,5.00,000.00,027.6,026.5,000.0,036.0,029.0,20.6,0000.0,0011.72,0004.83,0004.27
2023-11-17 07:14:00,SystemResetWarning,0829.9,5.00,000.00,027.6,026.5,000.0,036.0,028.9,20.6,0000.0,0011.52,0004.87,0004.30
2023-11-17 07:15:00,SystemResetWarning,0829.9,5.01,000.00,027.6,026.5,000.0,036.0,029.0,20.6,0000.0,0011.06,0004.87,0004.32
2023-11-17 07:16:00,SystemResetWarning,0829.9,5.01,000.00,027.6,026.5,000.0,036.0,028.9,20.6,0000.0,0010.53,0004.89,0004.34
2023-11-17 07:17:00,SystemResetWarning,0829.9,5.00,000.00,027.6,026.5,000.0,036.0,029.0,20.6,0000.0,0010.44,0004.93,0004.36
2023-11-17 07:18:00,SystemResetWarning,0829.9,5.01,000.00,027.6,026.5,000.0,036.0,029.0,20.6,0000.0,0010.07,0004.94,0004.37
2023-11-17 07:19:00,SystemResetWarning,0830.0,5.00,000.00,027.6,026.5,000.0,036.0,029.0,20.6,0000.0,0009.81,0004.89,0004.37
2023-11-17 07:20:00,SystemResetWarning,0830.0,4.99,000.00,027.6,026.5,000.0,036.0,029.0,20.6,0000.0,0010.01,0004.93,0004.39
2023-11-17 07:21:00,SystemResetWarning,0830.0,4.99,000.00,027.6,026.5,000.0,036.0,029.0,20.6,0000.0,0009.88,0004.96,0004.40
2023-11-17 07:22:00,SystemResetWarning,0830.0,5.00,000.00,027.6,026.5,000.0,036.0,029.0,20.7,0000.0,0009.90,0004.98,0004.41
2023-11-17 07:23:00,SystemResetWarning,0830.0,5.01,000.00,027.6,026.5,000.0,036.0,028.9,20.7,0000.0,0009.74,0004.99,0004.43
2023-11-17 07:24:00,SystemResetWarning,0830.1,5.01,000.00,027.6,026.5,000.0,036.0,028.9,20.7,0000.0,0009.39,0005.00,0004.44
2023-11-17 07:25:00,SystemResetWarning,0830.1,5.01,000.00,027.6,026.5,000.0,036.0,028.9,20.8,0000.0,0009.00,0004.99,0004.47
2023-11-17 07:26:00,SystemResetWarning,0830.1,5.00,000.00,027.6,026.5,000.0,036.0,028.9,20.9,0000.0,0009.08,0005.01,0004.49
2023-11-17 07:27:00,SystemResetWarning,0830.1,5.00,000.00,027.5,026.5,000.0,036.0,028.9,20.9,0000.0,0009.02,0005.04,0004.50
2023-11-17 07:28:00,SystemResetWarning,0830.2,5.00,000.00,027.5,026.5,000.0,036.0,028.9,20.9,0000.0,0009.23,0005.05,0004.52
2023-11-17 07:29:00,SystemResetWarning,0830.2,5.00,000.00,027.5,026.5,000.0,036.0,028.9,20.9,0000.0,0009.42,0005.07,0004.54
2023-11-17 07:30:00,SystemResetWarning,0830.2,5.00,000.00,027.5,026.5,000.0,036.0,028.9,20.9,0000.0,0009.46,0005.12,0004.56
2023-11-17 07:31:00,SystemResetWarning,0830.1,4.99,000.00,027.5,026.5,000.0,035.9,028.9,20.9,0000.0,0009.35,0005.14,0004.59
2023-11-17 07:32:00,SystemResetWarning,0830.1,5.00,000.00,027.5,026.5,000.0,035.9,028.9,20.9,0000.0,0009.30,0005.14,0004.62
2023-11-17 07:33:00,SystemResetWarning,0830.1,5.00,000.00,027.5,026.5,000.0,036.0,028.9,20.9,0000.0,0009.49,0005.12,0004.63
2023-11-17 07:34:00,SystemResetWarning,0830.1,4.99,000.00,027.6,026.5,000.0,036.0,029.0,21.0,0000.0,0009.56,0005.16,0004.64
2023-11-17 07:35:00,SystemResetWarning,0830.1,5.00,000.00,027.5,026.5,000.0,035.9,029.0,21.1,0000.0,0009.81,0005.21,0004.65
2023-11-17 07:36:00,SystemResetWarning,0830.1,5.01,000.00,027.5,026.5,000.0,035.9,029.0,21.2,0000.0,0009.96,0005.20,0004.65
2023-11-17 07:37:00,SystemResetWarning,0830.1,5.01,000.00,027.6,026.6,000.0,035.9,028.9,21.2,0000.0,0009.96,0005.19,0004.65
2023-11-17 07:38:00,SystemResetWarning,0830.2,5.01,000.00,027.6,026.6,000.0,035.9,028.9,21.3,0000.0,0011.08,0005.21,0004.68
2023-11-17 07:39:00,SystemResetWarning,0830.2,5.01,000.00,027.5,026.6,000.0,035.9,028.9,21.4,0000.0,0011.39,0005.27,0004.73
2023-11-17 07:40:00,SystemResetWarning,0830.3,5.00,000.00,027.6,026.6,000.0,035.9,028.9,21.4,0000.0,0011.23,0005.32,0004.75
2023-11-17 07:41:00,SystemResetWarning,0830.2,5.00,000.00,027.6,026.6,000.0,035.9,029.0,21.4,0000.0,0011.28,0005.37,0004.81
2023-11-17 07:42:00,SystemResetWarning,0830.2,5.00,000.00,027.6,026.6,000.0,035.9,029.0,21.5,0000.0,0011.36,0005.44,0004.85
2023-11-17 07:43:00,SystemResetWarning,0830.2,5.00,000.00,027.6,026.6,000.0,035.9,029.0,21.3,0000.0,0011.40,0005.50,0004.89
2023-11-17 07:44:00,SystemResetWarning,0830.1,5.00,000.00,027.6,026.6,000.0,035.9,029.0,21.1,0000.0,0010.72,0005.57,0004.94
2023-11-17 07:45:00,SystemResetWarning,0830.2,5.00,000.00,027.6,026.6,000.0,035.9,029.0,21.0,0000.0,0010.91,0005.61,0005.01
2023-11-17 07:46:00,SystemResetWarning,0830.2,5.00,000.00,027.6,026.6,000.0,036.0,029.0,20.9,0000.0,0010.98,0005.66,0005.06
2023-11-17 07:47:00,SystemResetWarning,0830.3,5.00,000.00,027.6,026.6,000.0,036.0,029.0,20.9,0000.0,0010.89,0005.74,0005.13
2023-11-17 07:48:00,SystemResetWarning,0830.2,4.99,000.00,027.6,026.6,000.0,036.0,029.0,20.8,0000.0,0010.80,0005.79,0005.17
2023-11-17 07:49:00,SystemResetWarning,0830.1,5.00,000.00,027.6,026.6,000.0,036.0,029.0,20.7,0000.0,0009.65,0005.77,0005.16
2023-11-17 07:50:00,SystemResetWarning,0830.1,5.00,000.00,027.6,026.6,000.0,036.0,029.0,20.7,0000.0,0009.11,0005.70,0005.10
2023-11-17 07:51:00,SystemResetWarning,0830.3,5.00,000.00,027.6,026.6,000.0,035.9,029.0,20.7,0000.0,0009.13,0005.66,0005.07
2023-11-17 07:52:00,SystemResetWarning,0830.3,5.00,000.00,027.5,026.6,000.0,035.9,028.9,20.7,0000.0,0009.45,0005.61,0005.02
2023-11-17 07:53:00,SystemResetWarning,0830.2,5.00,000.00,027.5,026.6,000.0,035.9,029.0,20.7,0000.0,0009.37,0005.50,0004.96
2023-11-17 07:54:00,SystemResetWarning,0830.1,5.01,000.00,027.5,026.5,000.0,035.9,028.9,20.7,0000.0,0009.54,0005.43,0004.88
2023-11-17 07:55:00,SystemResetWarning,0830.1,5.01,000.00,027.5,026.5,000.0,035.9,028.9,20.7,0000.0,0009.58,0005.35,0004.80
2023-11-17 07:56:00,SystemResetWarning,0830.2,5.01,000.00,027.5,026.6,000.0,035.9,029.0,20.6,0000.0,0010.48,0005.27,0004.72
2023-11-17 07:57:00,SystemResetWarning,0830.2,5.00,000.00,027.5,026.6,000.0,035.9,029.0,20.6,0000.0,0010.54,0005.23,0004.65
2023-11-17 07:58:00,SystemResetWarning,0830.3,4.99,000.00,027.5,026.6,000.0,035.9,029.0,20.6,0000.0,0010.82,0005.14,0004.58
2023-11-17 07:59:00,SystemResetWarning,0830.3,4.99,000.00,027.5,026.6,000.0,035.9,029.0,20.6,0000.0,0011.33,0005.12,0004.51
